Regional Weather Roundup
Issued by NWS Lake Charles, LA

Home | Current Version | Previous Version | Text Only | Print | Product List | Glossary On
Versions: 1 2 3 4 5 6 7 8 9 10 11 12 13 14 15 16 17 18 19 20 21 22 23 24 25 26 27 28 29 30 31 32 33 34 35 36 37 38 39 40 41 42 43 44 45 46 47 48 49 50
000
ASUS44 KLCH 292310
RWRLCH
REGIONAL WEATHER ROUNDUP
NATIONAL WEATHER SERVICE LAKE CHARLES LA
600 PM CDT MON AUG 29 2016

Note: "fair" indicates few or no clouds below 12,000 feet with no
significant weather and/or obstructions to visibility.


ACROSS SOUTHEAST TEXAS

CITY           SKY/WX    TMP DP  RH WIND       PRES   REMARKS
BEAUMONT       CLOUDY    85  73  67 SE7       29.92S
BEAUMONT CITY  FAIR      87  72  61 E8        29.93F
ORANGE         CLOUDY    86  69  57 E8        29.95S
JASPER         CLOUDY    79  74  84 SW3       29.98S
$$

ACROSS CENTRAL LOUISIANA

CITY           SKY/WX    TMP DP  RH WIND       PRES   REMARKS
LEESVILLE      CLOUDY    74  72  93 E6        29.97R
FULLERTON      LGT RAIN  75  73  93 CALM      29.95F
ALEXANDRIA INT LGT RAIN  75  73  93 CALM      29.95F
ESLER FIELD    CLOUDY    74  73  97 W5        29.96F
DERIDDER       RAIN      75  74  95 E3        29.98S
OAKDALE        LGT RAIN  73  73  97 CALM      29.95F
OPELOUSAS      FAIR      74  73  98 CALM      29.95F
$$

ACROSS SOUTHWEST AND SOUTH CENTRAL LOUISIANA

CITY           SKY/WX    TMP DP  RH WIND       PRES   REMARKS
SULPHUR        CLEAR     87  70  57 E7        29.94S
LAKE CHARLES   MOSUNNY   85  70  60 E12       29.93S
CHENNAULT INT  MOSUNNY   88  72  58 E9        29.94R
CAMERON PHI    CLEAR     84  73  70 E8G15     29.92F
DEQUINCY       FAIR      74  73  97 CALM      29.95F
JENNINGS       NOT AVBL
LAFAYETTE      CLOUDY    76  72  87 NE8       29.94S
NEW IBERIA     CLOUDY    79  72  79 NE8       29.95R
ABBEVILLE      FAIR      80  74  83 N5        29.95R
PATTERSON      PTSUNNY   83  77  82 NE9       29.93S
SALT POINT       N/A     81  76  84 CALM      29.91S
$$

SELECTED SITES ACROSS THE REGION

CITY           SKY/WX    TMP DP  RH WIND       PRES   REMARKS
HOUSTON BUSH   CLOUDY    81  75  82 N7        29.94R
HOUSTON HOBBY  CLOUDY    82  75  79 NE8       29.92R
GALVESTON      LGT RAIN  82  78  88 E12       29.91S
COLLEGE STAT   CLOUDY    76  73  91 E10       29.96S
CONROE         CLOUDY    82  76  81 E3        29.94F
HUNTSVILLE     CLOUDY    76  73  91 E3        29.96F
LUFKIN         CLOUDY    75  72  90 N3        29.96S
SHREVEPORT     CLOUDY    87  72  60 CALM      29.97R
MONROE         LGT RAIN  93  74  53 E5        29.97R HX 103
NATCHEZ MS     MOSUNNY   88  75  66 CALM      29.95F
BATON ROUGE    CLOUDY    78  75  90 N3        29.94F
N.O. INTL ARPT CLOUDY    89  71  55 E13       29.92F
SLIDELL        NOT AVBL
$$

MARINE REPORTS

STATION/POSITION TIME  SKY/WX   TEMP    WIND        PRES    VSBY
                                AIR SEA DIR/SP/G
                 (UTC)          (F)     (DEG/KT/KT) (MB)    (MI)
BUOY 30 S HIGH I 2250            82 85   70/ 17/ 19 1012.3R
WVE H/P(F/S)=  4/ 6

SEA RIM ST PARK  2300            83      90/  9/ 12 1013.8S
PORT ARTHUR      2200               85                N/A
SABINE PASS N    2200            83 85                N/A
TEXAS POINT      NOT AVBL
CALCASIEU PASS   2200            83 85                N/A
LK CHARLES BEACH 2200            86 80                N/A
MARSH ISLAND     2200            79                   N/A
FRESH WATER LOCK 2200            83 83                N/A
AMERADA PASS     2200            80 82                N/A
$$



USA.gov is the U.S. government's official web portal to all federal, state and local government web resources and services.